Location: Baller�as
(41.9020°N, 0.1554°W)
Time: 10:52:27
(UTC+00:00)

Cosmos 1818 - Pass Details

Date: 10 August 2020
Orbit: 776 x 797 km, 65.0° (Epoch: 21 September)

Event Time Altitude Azimuth Distance (km) Brightness Sun altitude
Rises 20:39:57 0° 324° (NW) 3,307 8.3 -15.8°
Reaches altitude 10° 20:42:24 10° 321° (NW) 2,374 7.3 -16.1°
Maximum altitude 20:47:47 63° 242° (WSW) 887 3.9 -16.9°
Enters shadow 20:51:12 23° 167° (SSE) 1,653 4.8 -17.4°
